Location: Ladrillo (historical)
(32.8195°N, 117.2231°W)
Time: 23:39:36
(UTC+00:00)

Altair - Pass Details

Date: 03 March 2021
Orbit: 1501 x 1683 km, 47.2° (Epoch: 16 April)

Event Time Altitude Azimuth Distance (km) Brightness Sun altitude
Rises 05:12:38 0° 286° (WNW) 4,658 10.8 -43.1°
Reaches altitude 10° 05:16:05 10° 296° (WNW) 3,694 10.1 -43.8°
Enters shadow 05:24:01 33° 354° (N) 2,380 8.5 -45.3°
